ボアッティーニ彗星

C/2008 S3 ( Boattini )

English version
Home page
Updated on February 1, 2012

---------------------------------------------------------------------

・ プロフィール

発見日 2008年9月29日
発見光度 18.4等
発見者 A. Boattini (Mt. Lemmon)

・ 写真集

・ 軌道要素

Epoch 2011 June 8.0 TT = JDT 2455720.5
T 2011 June 7.40510 TT                                  MPC
q   8.0178547            (2000.0)            P               Q
z  -0.0001253      Peri.   39.96470     +0.94225619     +0.23005710
 +/-0.0000007      Node    54.94141     +0.17644657     -0.95869229
e   1.0010045      Incl.  162.70401     +0.28463989     -0.16728069
From 1185 observations 2006 Dec. 27-2011 Nov. 30, mean residual 0".6.

・ 星図

・ 光度変化

        m1 = 3.5 + 5 logΔ + 10.0 log r

---------------------------------------------------------------------

軌道要素はM.P.E.C. 2011-X25に掲載されたものです。
星図はステラナビゲータ Ver.8 (アストロアーツ) で作成したものです。
光度グラフはComet for Windowsで作成したものです。

---------------------------------------------------------------------

Copyright(C) Seiichi Yoshida (comet@aerith.net). All rights reserved.